SCP
0 0 0 0 0 0 0 0 0 0 0 0 0 0 0 0 0 0 0 0 0 0 0 0 0 0 0 0 0 0 0 0 0 0 0 0 0 0
0 0 0 0 0 0 0 0 0 0 0 0 0 0 0 0 0 0 0 0 0 0 0 0 0 0 0 0 0 0 0 0 0 0 0 0 0 0
0 0 0 0 0 0 0 0 0 0 0 0 0 0 0 0 0 0 0 0 0 0 0 0 0 0 0 0 0 0 0 0 0 0 0 0 0 0
0 0 0 0 0 0 0 0 0 0 0 0 0 0 0 0 0 0 0 0 0 0 0 0 0 0 0 0 0 0 0 0 0 0 0 0 0 0
0 0 0 0 0 0 0 0 0 0 0 0 0 0 0 0 0 0 0 0 0 0 0 0 0 0 0 0 0 0 0 0 0 0 0 0 0 0
0 0 0 0 0 0 0 0 0 0 0 0 0 0 0 0 0 0 0 0 0 0 0 0 0 0 0 0 0 0 0 0 0 0 0 0 0 0
0 0 0 0 0 0 0 0 0 0 0 0 0 0 0 0 0 0 0 0 0 0 0 0 0 0 0 0 0 0 0 0 0 0 0 0 0 0
0 0 0 0 0 0 0 0 0 0 0 0 0 0 0 0 0 0 0 0 0 0 0 0 0 0 0 0 0 0 0 0 0 0 0 0 0 0
0 0 0 0 0 0 0 0 0 0 0 0 0 0 0 0 0 0 0 0 0 0 0 0 0 0 0 0 0 0 0 0 0 0 0 0 0 0
0 0 0 0 0 0 0 0 0 0 0 0 0 0 0 0 0 0 0 0 0 0 0 0 0 0 0 0 0 0 0 0 0 0 0 0 0 0
0 0 0 0 0 0 0 0 0 0 0 0 0 0 0 0 0 0 0 0 0 0 0 0 0 0 0 0 0 0 0 0 0 0 0 0 0 0
0 0 0 0 0 0 0 0 0 0 0 0 0 0 0 0 0 0 0 0 0 0 0 0 0 0 0 0 0 0 0 0 0 0 0 0 0 0
0 0 0 0 0 0 0 0 0 0 0 0 0 0 0 0 0 0 0 0 0 0 0 0 0 0 0 0 0 0 0 0 0 0 0 0 0 0
0 0 0 0 0 0 0 0 0 0 0 0 0 0 0 0 0 0 0 0 0 0 0 0 0 0 0 0 0 0 0 0 0 0 0 0 0 0
0 0 0 0 0 0 0 0 0 0 0 0 0 0 0 0 0 0 0 0 0 0 0 0 0 0 0 0 0 0 0 0 0 0 0 0 0 0
0 0 0 0 0 0 0 0 0 0 0 0 0 0 -0 -0 -0 0 0 0 0 0 0 0 0 0 0 0 0 0 0 0 0 0 0 0 0 0
0 0 0 0 0 0 0 0 0 0 0 0 0 0 0 -0 -0 0 0 0 0 0 0 0 0 0 0 0 0 0 0 0 0 0 0 0 0 0
0 0 0 0 0 0 0 0 0 0 0 0 0 0 0 0 0 0 0 0 0 0 0 0 0 0 0 0 0 0 0 0 0 0 0 0 0 0
0 0 0 0 0 0 0 0 0 0 0 0 0 0 0 0 0 0 0 0 0 0 0 0 0 0 0 0 0 0 0 0 0 0 0 0 0 0
0 0 0 0 0 0 0 0 0 0 0 0 0 0 0 0 0 0 0 0 0 0 0 0 0 0 0 0 0 0 0 0 0 0 0 0 0 0
0 0 0 0 0 0 0 0 0 0 0 0 0 0 0 0 0 0 0 0 0 0 0 0 0 0 0 0 0 0 0 0 0 0 0 0 0 0
0 0 0 0 0 0 0 0 0 0 0 0 0 0 0 0 0 0 0 0 0 0 0 0 0 0 0 0 0 0 0 0 0 0 0 0 0 0
0 0 0 0 0 0 0 0 0 0 0 0 0 0 0 0 0 0 0 0 0 0 0 0 0 0 0 0 0 0 0 0 0 0 0 0 0 0
Wind_Speed
3 3 3 3 3 3 3 3 3 2 3 3 2 2 2 2 3 3 3 5 6 7 7 7 7 8 8 8 8 8 7 7 8 9 9 10 11 11
2 2 2 2 2 2 2 2 3 3 3 2 3 2 2 2 2 3 3 5 5 6 7 7 7 8 8 8 8 8 7 7 7 8 9 10 10 10
2 2 2 2 1 2 2 2 3 3 4 3 2 2 2 3 2 2 2 3 3 5 6 6 7 8 8 8 8 8 8 8 8 8 8 9 9 9
3 2 2 2 2 2 2 3 3 3 4 4 2 2 3 3 2 2 2 2 2 4 5 6 7 7 8 8 8 8 8 8 7 8 7 8 8 9
3 3 3 3 3 2 3 3 2 2 3 3 3 2 2 1 1 2 2 1 2 3 4 5 5 6 6 7 7 8 8 7 8 8 8 8 8 8
3 3 4 4 4 4 3 3 2 2 2 2 2 2 2 1 1 2 2 1 2 2 3 3 4 5 6 7 7 7 7 8 8 8 8 8 8 8
3 3 4 4 5 4 3 3 3 2 2 2 2 2 2 1 2 2 2 2 2 2 2 2 2 3 3 5 6 7 7 8 8 8 8 9 9 8
3 3 3 3 4 5 5 5 4 4 4 3 3 3 3 3 2 2 2 1 2 1 1 2 2 3 3 3 5 7 8 8 9 9 9 9 9 9
3 3 3 3 3 3 4 4 5 5 6 4 4 4 4 4 3 3 3 3 3 2 1 3 2 3 3 3 6 7 8 8 9 9 9 9 9 10
3 3 3 3 3 3 3 2 3 4 5 4 4 5 4 4 4 4 3 3 3 2 2 3 3 3 3 3 4 6 7 7 8 9 9 9 9 10
3 3 3 4 4 3 3 3 3 3 4 4 5 4 3 3 3 3 2 2 3 2 2 3 2 3 3 3 3 4 5 6 7 8 8 9 9 9
2 2 4 4 4 3 4 3 4 4 3 2 2 2 2 2 3 4 4 3 3 2 2 2 2 2 2 2 2 2 3 4 6 6 7 8 8 6
2 2 2 3 3 3 3 3 5 4 2 1 2 2 2 2 2 2 3 4 4 3 2 2 2 2 2 3 2 2 2 3 3 4 5 7 7 7
3 2 2 2 2 1 2 2 3 2 1 1 1 2 2 2 2 2 2 3 4 4 3 3 2 2 2 3 4 3 2 3 3 3 3 4 5 7
2 2 2 2 1 1 1 1 1 1 1 1 2 2 2 3 2 1 1 1 2 3 3 3 3 3 3 3 4 3 3 2 2 3 3 3 3 3
2 1 1 1 0 0 1 1 1 1 2 2 2 2 1 1 1 1 1 1 1 2 2 3 3 4 3 4 4 4 4 3 2 3 3 3 3 4
1 0 0 0 0 1 1 1 0 1 1 1 2 2 1 1 1 1 1 1 1 2 2 1 2 3 4 4 4 4 4 4 4 3 3 4 4 4
3 1 1 1 2 1 1 1 1 1 1 1 1 1 2 2 1 1 1 1 2 2 2 2 1 1 1 3 5 5 4 4 4 4 4 4 5 4
2 2 2 2 2 2 2 2 2 2 1 1 2 2 2 2 1 1 1 2 2 3 3 2 1 2 3 5 3 5 4 4 4 4 4 4 5 4
2 3 3 3 2 2 2 2 2 2 1 2 2 2 2 2 2 2 2 2 3 3 3 2 2 3 4 5 4 4 6 5 4 4 4 4 5 5
3 3 3 3 3 3 3 2 3 2 2 2 2 2 2 2 2 2 2 3 3 3 3 4 3 4 3 3 4 4 4 5 5 4 4 4 4 4
3 3 3 3 3 3 3 3 3 3 3 3 3 2 2 2 3 3 3 3 3 3 4 3 2 1 2 3 5 5 5 4 4 6 6 5 4 4
3 3 3 3 3 3 3 3 3 3 3 3 3 3 3 3 3 3 3 3 3 3 3 3 2 2 2 3 4 5 6 5 3 3 4 4 7 8
Wind_Direction
222 223 224 226 213 212 200 192 193 241 264 257 254 259 261 254 259 240 243 246 243 235 231 230 232 232 232 231 233 237 241 241 244 245 239 239 240 241
218 215 225 228 215 203 202 206 204 210 238 245 251 267 276 276 264 242 246 255 248 242 233 228 227 229 229 228 229 232 236 240 244 248 246 245 244 242
225 214 227 212 208 205 198 202 208 204 228 257 253 258 251 265 276 256 252 246 248 242 236 230 229 229 230 231 231 232 233 236 239 243 245 243 243 243
228 214 224 211 215 216 207 213 216 212 215 243 256 251 243 247 254 257 259 243 245 250 244 235 232 233 234 235 234 231 229 228 229 234 240 244 241 239
217 214 219 209 222 224 218 217 223 217 211 227 254 253 256 249 257 272 270 262 259 250 246 240 235 236 235 234 232 229 225 224 228 231 235 241 244 243
221 219 219 211 220 218 216 221 219 214 207 218 248 262 264 259 225 250 273 271 274 264 257 248 239 241 242 239 235 229 225 224 228 232 233 235 236 238
230 229 229 223 222 214 210 207 204 211 209 218 241 251 259 245 236 230 252 272 273 259 260 258 246 247 248 245 243 238 235 234 233 233 234 233 234 235
231 245 244 240 242 230 223 209 195 201 216 218 236 239 245 239 233 219 229 251 272 247 234 265 240 250 256 250 245 243 240 237 234 232 231 231 231 232
225 237 248 249 236 233 235 234 232 232 216 208 225 237 238 229 211 216 213 219 244 251 215 271 265 261 259 254 240 240 241 239 237 234 231 227 228 231
228 228 236 255 250 226 219 233 250 251 236 226 229 239 240 231 213 216 218 228 248 247 214 252 267 263 269 262 250 240 240 240 240 237 233 230 230 231
246 239 235 242 253 227 208 231 262 272 262 237 234 246 251 240 206 188 198 212 251 257 210 224 255 268 272 268 258 242 240 243 243 242 237 235 234 233
256 257 250 245 251 223 208 219 247 265 275 291 278 278 268 260 217 206 210 214 234 259 216 208 243 253 273 261 263 265 253 252 250 250 243 238 233 232
245 264 269 259 253 245 219 221 239 253 265 258 277 292 296 290 275 236 216 214 223 242 225 198 238 241 257 282 289 276 263 262 259 257 249 242 230 219
236 250 255 251 247 265 248 253 255 257 254 276 294 297 293 289 286 271 233 224 234 247 247 207 225 234 249 272 280 287 280 267 258 259 258 246 232 224
234 241 255 256 250 276 264 257 234 208 198 234 271 274 267 272 284 286 269 241 254 258 252 225 224 231 233 250 266 274 286 283 260 262 268 260 247 226
244 266 326 336 272 262 297 244 201 195 202 231 255 268 275 279 284 277 276 260 267 282 264 247 238 227 236 245 252 266 269 274 278 265 267 264 253 239
179 168 236 271 314 308 304 291 208 182 222 246 250 269 275 271 269 247 238 221 230 273 293 287 257 246 245 251 256 263 267 266 267 271 264 267 259 242
150 182 226 234 242 256 269 280 263 241 247 251 254 264 273 274 282 266 217 219 242 261 271 283 290 268 260 244 229 255 265 270 276 269 255 263 270 257
172 218 234 238 239 242 243 247 255 260 244 240 251 256 262 264 267 272 262 257 263 268 271 267 248 244 271 284 262 219 251 272 276 272 262 257 267 270
212 226 235 236 234 238 241 245 254 259 242 249 258 258 256 253 256 262 263 267 271 274 275 264 245 242 250 270 280 269 238 252 263 270 272 271 268 265
228 234 238 241 236 235 237 237 240 245 247 244 249 254 254 249 252 258 264 264 261 267 271 273 272 262 262 258 264 273 271 246 249 261 270 275 279 273
236 239 242 242 239 237 235 233 238 243 245 239 240 241 239 237 246 255 259 260 257 261 273 283 293 268 242 250 268 280 290 292 266 261 263 256 263 269
239 239 240 242 239 235 232 231 234 240 240 239 241 240 236 237 246 249 253 251 254 262 271 280 285 276 263 261 269 277 282 288 290 293 289 271 253 262